Location: Ay?beleni
(36.6500°N, 30.3000°E)
Time: 03:46:39
(UTC+00:00)

Cosmos 1908 - Pass Details

Date: 16 October 2021
Orbit: 509 x 528 km, 82.5° (Epoch: 08 December)

Event Time Altitude Azimuth Distance (km) Brightness Sun altitude
Rises 16:02:13 0° 175° (S) 2,651 6.8 -9.0°
Reaches altitude 10° 16:04:23 10° 170° (S) 1,765 5.9 -9.4°
Maximum altitude 16:08:09 52° 94° (E) 662 3.3 -10.2°
Drops below altitude 10° 16:11:56 10° 18° (NNE) 1,773 5.7 -11.0°
Sets 16:14:07 0° 13° (NNE) 2,664 6.7 -11.4°
